[[{"header":{"parameterUnit":"m.s-1","parameterCategory":1,"la1":30.2991,"la2":30.254,"lo1":-89.0895,"lo2":-89.0444,"dy":0.0017,"dx":0.0017,"nx":28,"ny":28,"refTime":"2023-10-21T09:00:00:Z","depth":0,"parameterNumber":2,"parameterNumberName":"U-component_of_WINDS"},"data":[0,0,0,0,0,0,0,0,0,0,0,0,0,0,0,0,0,0,0,0,0,0,0,0,0,0,0,0,0,0,0,0,0,0,0,0,0,0,0,0,0,0,0,0,0,0,0,0,0,0,0,0,0,0,0,0,0,0,-0.2271,-0.227,0,-0.2194,-0.2194,-0.2193,-0.215,-0.215,-0.215,-0.215,-0.2071,-0.2069,-0.2067,0,0,0,0,0,0,0,0,0,0,0,0,0,-0.238,-0.2378,-0.2271,-0.227,-0.2269,-0.2195,-0.2194,-0.2192,-0.215,-0.215,-0.215,-0.215,-0.2071,-0.2069,-0.2067,0,0,0,0,0,0,0,0,0,0,0,0,0,-0.2321,-0.2377,-0.2271,-0.2239,-0.2235,-0.2195,-0.2193,-0.2192,-0.215,-0.215,-0.215,-0.215,-0.2072,-0.2069,-0.2066,-0.2052,0,0,-0.2057,-0.2056,0,0,0,0,0,0,0,0,-0.2324,-0.2317,-0.2245,-0.2241,-0.2237,-0.2182,-0.2203,-0.2145,-0.215,-0.2182,-0.215,-0.2149,-0.2108,-0.2102,-0.2088,-0.2048,-0.2045,-0.2057,-0.2055,-0.2054,-0.2053,0,0,0,0,0,0,0,-0.2328,-0.232,-0.2241,-0.2244,-0.2239,-0.2228,-0.222,-0.2192,-0.2147,-0.218,-0.2176,-0.2168,-0.2106,-0.2091,-0.2086,-0.2044,-0.2057,-0.2054,-0.2053,-0.2051,-0.1987,-0.1988,0,0,0,0,0,0,-0.2338,-0.2324,-0.2243,-0.2238,-0.2281,-0.2226,-0.2217,-0.22,-0.2147,-0.2139,-0.2168,-0.2166,-0.2096,-0.2089,-0.2083,-0.2062,-0.2054,-0.2051,-0.2049,-0.1987,-0.1987,-0.1988,0,0,0,0,0,0,-0.234,-0.2331,-0.2246,-0.228,-0.2268,-0.2225,-0.2206,-0.2198,-0.2183,-0.2139,-0.213,-0.2161,-0.2096,-0.2087,-0.206,-0.2059,-0.205,-0.2047,-0.1987,-0.1987,-0.1987,-0.2021,0,0,0,0,0,0,-0.2343,-0.2332,-0.2326,-0.228,-0.2267,-0.2225,-0.2206,-0.2197,-0.2178,-0.2175,-0.213,-0.2122,-0.2095,-0.2064,-0.2057,-0.2054,-0.2045,-0.1987,-0.1987,-0.1987,-0.2019,-0.2022,-0.2024,0,0,0,0,0,-0.2348,-0.2339,-0.2326,-0.2317,-0.2259,-0.2225,-0.2217,-0.2186,-0.2179,-0.2172,-0.2143,-0.2124,-0.206,-0.2062,-0.2053,-0.205,-0.1987,-0.1987,-0.1987,-0.2018,-0.2021,-0.2024,0,0,0,0,0,0,-0.2386,-0.2332,-0.2318,-0.2294,-0.2264,-0.2218,-0.2209,-0.219,-0.2162,-0.216,-0.2122,-0.2112,-0.2088,-0.2066,-0.2069,-0.2033,-0.2021,-0.202,-0.2048,-0.205,-0.2053,-0.2058,-0.2042,0,0,0,0,0,-0.2391,-0.2368,-0.2323,-0.2306,-0.2292,-0.2253,-0.2237,-0.2215,-0.2183,-0.2171,-0.214,-0.2109,-0.2082,-0.2065,-0.2038,-0.2016,-0.2005,-0.2009,-0.2012,-0.2014,-0.2013,-0.1999,-0.2,-0.1988,-0.1988,-0.1988,0,0,-0.2403,-0.237,-0.2358,-0.2313,-0.2287,-0.2264,-0.2243,-0.2219,-0.2202,-0.2167,-0.2139,-0.2116,-0.2079,-0.2054,-0.2042,-0.2035,-0.2014,-0.2014,-0.2016,-0.2014,-0.1999,-0.2001,-0.2002,-0.1988,-0.1988,-0.1988,0,0,-0.2412,-0.2385,-0.2368,-0.2343,-0.2305,-0.2279,-0.2275,-0.2231,-0.2214,-0.2186,-0.2159,-0.2137,-0.2092,-0.2067,-0.2048,-0.2047,-0.2028,-0.2039,-0.2051,-0.2038,-0.2039,-0.204,-0.2039,-0.2039,-0.2038,-0.2038,-0.2038,0,-0.2431,-0.2395,-0.2362,-0.234,-0.232,-0.2288,-0.227,-0.2247,-0.2202,-0.2189,-0.2182,-0.2124,-0.2097,-0.2066,-0.2066,-0.2052,-0.2046,-0.2044,-0.2042,-0.2042,-0.2042,-0.2041,-0.2041,-0.204,-0.204,-0.204,-0.204,0,-0.242,-0.2395,-0.2386,-0.2343,-0.2323,-0.2303,-0.2267,-0.225,-0.223,-0.2205,-0.2177,-0.2143,-0.2108,-0.2099,-0.208,-0.2065,-0.2062,-0.2049,-0.2037,-0.2046,-0.2044,-0.2043,-0.2042,-0.2042,-0.2041,-0.2041,0,0,-0.2451,-0.239,-0.2387,-0.2367,-0.2322,-0.2303,-0.2281,-0.2247,-0.2233,-0.2203,-0.2184,-0.2146,-0.2134,-0.2113,-0.209,-0.2079,-0.208,-0.2067,-0.2065,-0.207,-0.2061,-0.2072,-0.2072,-0.2067,-0.2067,-0.2066,-0.2064,0,-0.2453,-0.2413,-0.2383,-0.2354,-0.2331,-0.23,-0.2281,-0.2252,-0.2228,-0.2204,-0.2177,-0.2151,-0.2137,-0.2124,-0.2111,-0.2082,-0.2077,-0.2082,-0.2048,-0.2048,-0.2059,-0.2071,-0.2081,-0.2081,-0.2064,-0.2064,-0.2063,0,-0.2451,-0.2422,-0.2391,-0.2348,-0.2338,-0.2321,-0.2288,-0.2266,-0.2231,-0.2215,-0.2191,-0.2167,-0.2143,-0.2133,-0.2099,-0.2103,-0.2087,-0.2071,-0.207,-0.2066,-0.2056,-0.2067,-0.208,-0.208,-0.2062,-0.2062,-0.2062,0,-0.2476,-0.2429,-0.2405,-0.2389,-0.2338,-0.2328,-0.2306,-0.2272,-0.2253,-0.2224,-0.2211,-0.2179,-0.2162,-0.2137,-0.2105,-0.2101,-0.2074,-0.2062,-0.2059,-0.206,-0.2055,-0.2056,-0.2067,-0.2046,-0.2046,-0.2046,-0.2046,0,-0.2482,-0.2465,-0.2416,-0.2401,-0.238,-0.2345,-0.2325,-0.2301,-0.227,-0.225,-0.2221,-0.2202,-0.2161,-0.2138,-0.2113,-0.2088,-0.208,-0.2066,-0.2059,-0.2068,-0.207,-0.2058,-0.2057,-0.2046,-0.2046,-0.2046,-0.2046,0,-0.2507,-0.2474,-0.2445,-0.2399,-0.2388,-0.2374,-0.2335,-0.2319,-0.2294,-0.2268,-0.226,-0.2219,-0.219,-0.2156,-0.2115,-0.2098,-0.2076,-0.2066,-0.2087,-0.2084,-0.2083,-0.2083,-0.2086,-0.2084,-0.2065,-0.2065,-0.2065,0,-0.2513,-0.2499,-0.2452,-0.2436,-0.2415,-0.239,-0.2371,-0.2335,-0.2317,-0.2276,-0.2265,-0.2234,-0.2206,-0.2161,-0.2128,-0.2096,-0.2086,-0.2089,-0.2081,-0.209,-0.2086,-0.2087,-0.2085,-0.2091,-0.2091,-0.2092,-0.2092,0,-0.2527,-0.2511,-0.2485,-0.2452,-0.243,-0.2403,-0.2374,-0.2363,-0.2322,-0.2302,-0.2272,-0.2251,-0.2209,-0.2178,-0.2143,-0.212,-0.2099,-0.2095,-0.2092,-0.2101,-0.2114,-0.2107,-0.2093,-0.2095,-0.2095,-0.2094,-0.2094,-0.2094,-0.2543,-0.2528,-0.2493,-0.2464,-0.2439,-0.2413,-0.2396,-0.2367,-0.2342,-0.2305,-0.2286,-0.2256,-0.2221,-0.2171,-0.2149,-0.2125,-0.2118,-0.2115,-0.2114,-0.2113,-0.2116,-0.2118,-0.2118,-0.2118,-0.2118,-0.2118,-0.2118,0,-0.2555,-0.2531,-0.2505,-0.2465,-0.2443,-0.2425,-0.2392,-0.2375,-0.2349,-0.2318,-0.2292,-0.2257,-0.2226,-0.2191,-0.2158,-0.2145,-0.2135,-0.2138,-0.2138,-0.2133,-0.2124,-0.213,-0.2147,-0.2147,-0.2147,-0.2147,-0.2147,-0.2147,-0.2559,-0.2534,-0.2514,-0.2475,-0.2451,-0.2421,-0.2404,-0.238,-0.2355,-0.2317,-0.2292,-0.2269,-0.2236,-0.22,-0.2172,-0.2162,-0.2151,-0.2157,-0.2144,-0.2137,-0.2134,-0.2132,-0.2136,-0.2155,-0.2155,-0.2155,-0.2155,-0.2155]},{"header":{"parameterUnit":"m.s-1","parameterCategory":1,"la1":30.2991,"la2":30.254,"lo1":-89.0895,"lo2":-89.0444,"dy":0.0017,"dx":0.0017,"nx":28,"ny":28,"refTime":"2023-10-21T09:00:00:Z","depth":0,"parameterNumber":3,"parameterNumberName":"V-component_of_WINDS"},"data":[0,0,0,0,0,0,0,0,0,0,0,0,0,0,0,0,0,0,0,0,0,0,0,0,0,0,0,0,0,0,0,0,0,0,0,0,0,0,0,0,0,0,0,0,0,0,0,0,0,0,0,0,0,0,0,0,0,0,2.3344,2.3344,0,2.3343,2.3343,2.3343,2.3326,2.3326,2.3325,2.3325,2.3323,2.3323,2.3324,0,0,0,0,0,0,0,0,0,0,0,0,0,2.3329,2.3329,2.3344,2.3344,2.3344,2.3343,2.3343,2.3343,2.3326,2.3326,2.3325,2.3325,2.3323,2.3323,2.3324,0,0,0,0,0,0,0,0,0,0,0,0,0,2.3333,2.3329,2.3344,2.3335,2.3334,2.3343,2.3343,2.3343,2.3326,2.3326,2.3325,2.3324,2.3323,2.3323,2.3324,2.334,0,0,2.3325,2.3326,0,0,0,0,0,0,0,0,2.3332,2.3333,2.3336,2.3336,2.3335,2.3334,2.3337,2.3342,2.3327,2.3329,2.3325,2.3324,2.3327,2.3327,2.3329,2.334,2.334,2.3325,2.3326,2.3326,2.3326,0,0,0,0,0,0,0,2.3332,2.3333,2.3343,2.3337,2.3336,2.3331,2.3331,2.3338,2.3332,2.3329,2.3328,2.3328,2.3327,2.3328,2.3328,2.334,2.3325,2.3326,2.3326,2.3326,2.3366,2.3367,0,0,0,0,0,0,2.3333,2.3333,2.3343,2.3343,2.3332,2.3332,2.3332,2.3335,2.3332,2.3331,2.3329,2.3327,2.3327,2.3328,2.3328,2.3348,2.3326,2.3326,2.3327,2.3365,2.3366,2.3367,0,0,0,0,0,0,2.3333,2.3334,2.3343,2.3338,2.3339,2.3333,2.3337,2.3335,2.3337,2.3332,2.333,2.3332,2.3327,2.3327,2.3338,2.3348,2.3327,2.3327,2.3365,2.3366,2.3367,2.3387,0,0,0,0,0,0,2.3333,2.3334,2.3341,2.3338,2.3339,2.3353,2.3337,2.3336,2.3338,2.3336,2.3334,2.3333,2.3326,2.3337,2.3338,2.3348,2.3328,2.3364,2.3365,2.3366,2.3386,2.3389,2.3392,0,0,0,0,0,2.3332,2.3346,2.3341,2.3342,2.3347,2.3354,2.3354,2.3347,2.3339,2.3345,2.3342,2.3333,2.3347,2.3338,2.3339,2.3349,2.3363,2.3365,2.3366,2.3384,2.3388,2.3392,0,0,0,0,0,0,2.3348,2.3345,2.334,2.3353,2.3354,2.3351,2.3358,2.3352,2.3354,2.3353,2.3343,2.3343,2.3355,2.3353,2.3344,2.3366,2.3353,2.3355,2.3366,2.337,2.3373,2.3373,2.3328,0,0,0,0,0,2.3354,2.336,2.3357,2.3369,2.337,2.3364,2.3367,2.3362,2.3362,2.3362,2.3359,2.336,2.3364,2.3367,2.3371,2.3386,2.3385,2.3393,2.3396,2.3399,2.34,2.3409,2.3413,2.3373,2.3373,2.3373,0,0,2.3364,2.3363,2.3368,2.3372,2.3372,2.3379,2.3364,2.3372,2.3377,2.3363,2.3373,2.3371,2.3371,2.3384,2.3389,2.3383,2.3412,2.3401,2.3403,2.3403,2.3411,2.3415,2.3418,2.3374,2.3374,2.3373,0,0,2.3387,2.3387,2.3397,2.3398,2.3399,2.3396,2.3398,2.3397,2.3395,2.3405,2.3395,2.3401,2.3408,2.3409,2.341,2.3435,2.3427,2.3437,2.3452,2.3461,2.3464,2.3467,2.3476,2.348,2.3438,2.3439,2.3439,0,2.34,2.341,2.3404,2.3412,2.3415,2.3404,2.3414,2.3415,2.3417,2.3419,2.3412,2.3422,2.3421,2.3434,2.3441,2.3442,2.3445,2.3437,2.3464,2.3467,2.3469,2.3478,2.3482,2.344,2.344,2.3439,2.3439,0,2.3426,2.3433,2.3442,2.3445,2.3448,2.3458,2.3453,2.3457,2.3452,2.3449,2.346,2.3459,2.3463,2.3465,2.346,2.3478,2.3474,2.3466,2.3453,2.3475,2.3483,2.3486,2.3441,2.3441,2.3441,2.344,0,0,2.3458,2.3459,2.3462,2.3464,2.3465,2.347,2.3479,2.3484,2.3488,2.349,2.3498,2.3505,2.3498,2.3499,2.3494,2.3501,2.3522,2.3492,2.3492,2.3498,2.3543,2.355,2.3554,2.3517,2.3518,2.3518,2.3543,0,2.348,2.3497,2.3492,2.3509,2.3516,2.3506,2.3515,2.3516,2.3514,2.352,2.3517,2.3523,2.3513,2.3514,2.3521,2.3518,2.3531,2.3516,2.3524,2.3524,2.3525,2.3558,2.3564,2.3588,2.3546,2.3547,2.3547,0,2.3509,2.3513,2.3531,2.3532,2.3534,2.3542,2.3546,2.3552,2.3553,2.3552,2.3554,2.3548,2.3557,2.3545,2.3557,2.3548,2.3551,2.355,2.3551,2.3551,2.3537,2.3559,2.3595,2.3599,2.3552,2.3552,2.3551,0,2.3531,2.3541,2.3553,2.3555,2.3556,2.3562,2.3563,2.3564,2.3567,2.3571,2.3573,2.3578,2.358,2.3584,2.3579,2.357,2.3593,2.358,2.3592,2.3592,2.3597,2.3596,2.3634,2.3598,2.3598,2.3598,2.3598,0,2.3556,2.3568,2.3563,2.3571,2.3583,2.3578,2.359,2.359,2.3591,2.3598,2.359,2.3597,2.359,2.3596,2.3593,2.3604,2.3605,2.3604,2.3603,2.3605,2.3605,2.3607,2.3605,2.3599,2.3599,2.3599,2.3599,0,2.3583,2.358,2.3593,2.3594,2.3595,2.3604,2.3604,2.3611,2.3609,2.3619,2.3621,2.3617,2.3625,2.362,2.3627,2.3625,2.364,2.3636,2.364,2.3639,2.3651,2.365,2.3691,2.3696,2.3657,2.3658,2.3658,0,2.3599,2.3608,2.361,2.3615,2.3617,2.3624,2.3628,2.3624,2.3628,2.3632,2.3638,2.3645,2.365,2.3662,2.366,2.3665,2.3662,2.3676,2.3662,2.3665,2.3662,2.3662,2.3663,2.3678,2.3679,2.3679,2.3679,0,2.3629,2.3628,2.3634,2.3641,2.3646,2.3651,2.3655,2.3659,2.3655,2.366,2.3668,2.3672,2.368,2.3687,2.3692,2.3692,2.3685,2.3684,2.3687,2.3689,2.3691,2.3691,2.3647,2.3683,2.3682,2.3682,2.3682,2.3682,2.3651,2.3659,2.3662,2.367,2.3673,2.3677,2.3684,2.3684,2.3691,2.3697,2.3694,2.3703,2.3706,2.3712,2.3713,2.372,2.3715,2.3719,2.372,2.3721,2.3723,2.369,2.3721,2.3721,2.3721,2.3721,2.3721,0,2.3681,2.3683,2.3691,2.3697,2.3703,2.3698,2.3702,2.3708,2.3716,2.3719,2.3725,2.3735,2.3741,2.3741,2.3747,2.3753,2.375,2.3755,2.3754,2.3755,2.3728,2.3725,2.3757,2.3757,2.3757,2.3757,2.3757,2.3757,2.3697,2.371,2.371,2.3725,2.3727,2.3736,2.374,2.3744,2.3746,2.3758,2.3764,2.3764,2.3765,2.3772,2.3778,2.3778,2.3781,2.3787,2.3785,2.376,2.3756,2.3753,2.375,2.3787,2.3787,2.3811,2.3812,2.3812]}]]